(58501) = 1996 VQ2 = 2000 YO59

Discovered at Sudbury on 1996-11-10 by D. di Cicco.

Orbit

Orbit type: Main Belt

Note: WebGL enabled browser required.

epoch2024-03-31.0
epoch JD2460400.5
perihelion date2021-04-22.94617
perihelion JD2459327.44617
argument of perihelion (°)302.05252
ascending node (°)46.46618
inclination (°)1.00044
eccentricity0.2376154
perihelion distance (AU)1.7733142
Tisserand w.r.t. Jupiter3.5
ΔV w.r.t. Earth (km/sec)8.3
semimajor axis (AU)2.3260101
mean anomaly (°)298.13156
mean daily motion (°/day)0.27783470
aphelion distance (AU)2.879
period (years)3.55
P-vector [x]0.97989606
P-vector [y]-0.17665486
P-vector [z]-0.09271875
Q-vector [x]0.19910671
Q-vector [y]0.89538606
Q-vector [z]0.39829677
absolute magnitude15.78
phase slope0.15
uncertainty0
referenceMPEC 2024-E123
observations used1385
oppositions19
arc length (days)11776
first opposition used1991
last opposition used2023
residual rms (arc-secs)0.74
perturbers coarse indicatorM-v
perturbers precise indicator003Ek
first observation date used1991-03-13.0
last observation date used2023-06-09.0
computer nameMPCLINUX
JD of orbit computation2456966.788272
perihelion JD uncertainty (days)3.6616E-05
argument of perihelion uncertainty (°)2.3530E-04
ascending node uncertainty (°)2.3514E-04
inclination uncertainty (°)4.5778E-06
eccentricity uncertainty 5.2738E-08
perihelion distance uncertainty (AU)1.2598E-07
Minimum Orbit Intersection Distances (in AU)
for orbit epoch: 2460200.5, reference: E2023-UA0
Mercury1.39079
Venus1.04718
Earth0.76636
Mars0.38795
Jupiter2.53524
Saturn6.43663
Uranus15.5678
Neptune27.6248

Observations

1417 total observations over interval: 1991 03 13.26003 – 2023 06 09.195121
These data are available for download (format description).

Date (UT) J2000 RA J2000 Dec Magn Location Ref
1991 03 13.26003 11 23 47.50 +05 17 09.7 21.2 V 691 – Steward Observatory, Kitt Peak-Spacewatch MPS 77755
1991 03 13.29075 11 23 45.67 +05 17 20.5 21.0 V 691 – Steward Observatory, Kitt Peak-Spacewatch MPS 77755
1991 03 13.31100 11 23 44.49 +05 17 27.6 21.1 V 691 – Steward Observatory, Kitt Peak-Spacewatch MPS 77755
1996 11 10.21078 03 06 53.66 +17 35 58.2 17.2 R 817 – Sudbury MPC 28266
1996 11 10.24220 03 06 51.55 +17 35 51.3 17.0 R 817 – Sudbury MPC 28266
1996 11 10.28527 03 06 48.69 +17 35 42.1 17.1 R 817 – Sudbury MPC 28266
1996 11 11.13903 03 05 54.53 +17 32 43.8 16.8 R 817 – Sudbury MPC 28266
1996 11 11.16743 03 05 52.64 +17 32 38.0 16.8 R 817 – Sudbury MPC 28266
1996 11 12.14275 03 04 50.72 +17 29 13.4 16.7 R 817 – Sudbury MPC 28266
1996 11 12.17199 03 04 48.80 +17 29 07.2 16.6 R 817 – Sudbury MPC 28266
1996 11 17.28167 02 59 34.67 +17 11 28.2 17.8 V 691 – Steward Observatory, Kitt Peak-Spacewatch MPC 28438
1996 11 17.30523 02 59 33.22 +17 11 23.4 17.5 V 691 – Steward Observatory, Kitt Peak-Spacewatch MPC 28438
1996 11 17.32835 02 59 31.77 +17 11 18.5 17.5 V 691 – Steward Observatory, Kitt Peak-Spacewatch MPC 28438
1996 11 28.14030 02 50 11.80 +16 38 49.8 17.9 R 817 – Sudbury MPC 28549
1996 11 28.18024 02 50 09.97 +16 38 44.4 17.7 R 817 – Sudbury MPC 28549
1996 11 28.60051 02 49 52.21 +16 37 41.6   327 – Peking Observatory, Xinglong Station MPC 28667
1996 11 28.61354 02 49 51.55 +16 37 40.0   327 – Peking Observatory, Xinglong Station MPC 28667
1996 11 28.62656 02 49 51.02 +16 37 37.6   327 – Peking Observatory, Xinglong Station MPC 28667
1996 11 28.63959 02 49 50.40 +16 37 36.0 18.0 V 327 – Peking Observatory, Xinglong Station MPC 28667
2000 12 27.26205 08 12 50.17 +21 24 37.5 18.4 R 699 – Lowell Observatory-LONEOS MPS 24214
2000 12 27.27776 08 12 48.92 +21 24 43.0   699 – Lowell Observatory-LONEOS MPS 24214
2000 12 27.29349 08 12 48.04 +21 24 46.2   699 – Lowell Observatory-LONEOS MPS 24214
2000 12 27.30923 08 12 47.13 +21 24 50.4   699 – Lowell Observatory-LONEOS MPS 24214
2000 12 30.32461 08 09 50.16 +21 35 09.5 19.7   704 – Lincoln Laboratory ETS, New Mexico MPS 24214
2000 12 30.33982 08 09 49.20 +21 35 12.2 19.4   704 – Lincoln Laboratory ETS, New Mexico MPS 24214
2000 12 30.35521 08 09 48.23 +21 35 16.6 19.7   704 – Lincoln Laboratory ETS, New Mexico MPS 24214
2000 12 30.37040 08 09 47.29 +21 35 19.7 19.3   704 – Lincoln Laboratory ETS, New Mexico MPS 24214
2001 01 02.30689 08 06 44.59 +21 45 33.5 19.1   704 – Lincoln Laboratory ETS, New Mexico MPS 24214
2001 01 02.32244 08 06 43.52 +21 45 36.1 19.6   704 – Lincoln Laboratory ETS, New Mexico MPS 24214
2001 01 02.33798 08 06 42.55 +21 45 40.5 19.2   704 – Lincoln Laboratory ETS, New Mexico MPS 24214
2001 01 02.35319 08 06 41.60 +21 45 43.2 19.3   704 – Lincoln Laboratory ETS, New Mexico MPS 24214
2001 01 03.27247 08 05 42.64 +21 48 56.4 19.3 R 699 – Lowell Observatory-LONEOS MPS 24214
2001 01 03.29586 08 05 41.05 +21 49 00.8   699 – Lowell Observatory-LONEOS MPS 24214
2001 01 03.30869 08 05 40.16 +21 49 04.5 18.4   704 – Lincoln Laboratory ETS, New Mexico MPS 24214
2001 01 03.31926 08 05 39.53 +21 49 06.4   699 – Lowell Observatory-LONEOS MPS 24214
2001 01 03.32440 08 05 39.14 +21 49 07.5 19.2   704 – Lincoln Laboratory ETS, New Mexico MPS 24214
2001 01 03.33965 08 05 38.09 +21 49 11.8 19.1   704 – Lincoln Laboratory ETS, New Mexico MPS 24214
2001 01 03.34271 08 05 37.97 +21 49 11.0   699 – Lowell Observatory-LONEOS MPS 24214
2001 01 03.35490 08 05 37.13 +21 49 15.1 19.1   704 – Lincoln Laboratory ETS, New Mexico MPS 24214
2001 01 03.37016 08 05 36.12 +21 49 19.0 19.1   704 – Lincoln Laboratory ETS, New Mexico MPS 24214
2001 01 20.31721 07 46 14.05 +22 44 52.2 19.6   704 – Lincoln Laboratory ETS, New Mexico MPS 24784
2001 01 20.33213 07 46 13.00 +22 44 55.7 19.4   704 – Lincoln Laboratory ETS, New Mexico MPS 24784
2001 01 20.34705 07 46 12.02 +22 44 58.2 19.5   704 – Lincoln Laboratory ETS, New Mexico MPS 24784
2001 01 20.36197 07 46 10.92 +22 45 00.7 19.5   704 – Lincoln Laboratory ETS, New Mexico MPS 24784
2001 01 21.30622 07 45 06.72 +22 47 40.8 18.4   704 – Lincoln Laboratory ETS, New Mexico MPS 24784
2001 01 21.33657 07 45 04.61 +22 47 46.0 18.8   704 – Lincoln Laboratory ETS, New Mexico MPS 24784
2001 01 21.35172 07 45 03.60 +22 47 47.6 19.4   704 – Lincoln Laboratory ETS, New Mexico MPS 24784
2001 01 21.36687 07 45 02.55 +22 47 50.4 18.8   704 – Lincoln Laboratory ETS, New Mexico MPS 24784
2001 02 19.17202 07 20 56.86 +23 34 00.8 19.1   704 – Lincoln Laboratory ETS, New Mexico MPS 26326
2001 02 19.18600 07 20 56.40 +23 34 02.4 19.8   704 – Lincoln Laboratory ETS, New Mexico MPS 26326
2001 02 19.20026 07 20 56.04 +23 34 03.0 19.1   704 – Lincoln Laboratory ETS, New Mexico MPS 26326
2001 02 19.21477 07 20 55.67 +23 34 02.5 19.2   704 – Lincoln Laboratory ETS, New Mexico MPS 26326
2001 02 19.22883 07 20 55.25 +23 34 02.5 19.8   704 – Lincoln Laboratory ETS, New Mexico MPS 26326
2001 02 21.11081 07 20 09.04 +23 34 46.7 20.3 V 691 – Steward Observatory, Kitt Peak-Spacewatch MPS 26326
2001 02 21.13432 07 20 08.46 +23 34 47.1 20.3 V 691 – Steward Observatory, Kitt Peak-Spacewatch MPS 26326
2001 02 21.15705 07 20 07.91 +23 34 47.8 20.1 V 691 – Steward Observatory, Kitt Peak-Spacewatch MPS 26326
2001 02 22.27362 07 19 43.34 +23 35 07.2 20.6 V 691 – Steward Observatory, Kitt Peak-Spacewatch MPS 26326
2001 02 22.27959 07 19 43.18 +23 35 07.7 20.5 V 691 – Steward Observatory, Kitt Peak-Spacewatch MPS 26326
2001 02 22.28552 07 19 43.05 +23 35 07.6 20.5 V 691 – Steward Observatory, Kitt Peak-Spacewatch MPS 26326
2002 03 13.37466 13 35 37.90 -09 07 35.2 20.5 V 691 – Steward Observatory, Kitt Peak-Spacewatch MPS 51315
2002 03 13.39617 13 35 37.11 -09 07 30.9 20.3 V 691 – Steward Observatory, Kitt Peak-Spacewatch MPS 51315
2002 03 13.41799 13 35 36.29 -09 07 26.5 20.5 V 691 – Steward Observatory, Kitt Peak-Spacewatch MPS 51315
2002 04 05.28194 13 17 09.28 -07 21 40.2 19.3 R 699 – Lowell Observatory-LONEOS MPS 54228
2002 04 05.29519 13 17 08.44 -07 21 33.9   699 – Lowell Observatory-LONEOS MPS 54228
2002 04 05.30843 13 17 07.73 -07 21 31.6   699 – Lowell Observatory-LONEOS MPS 54228
2002 04 05.32209 13 17 06.88 -07 21 27.3   699 – Lowell Observatory-LONEOS MPS 54228
2002 04 10.30069 13 12 17.70 -06 53 34.4 18.7   704 – Lincoln Laboratory ETS, New Mexico MPS 54228
2002 04 10.32466 13 12 16.23 -06 53 26.1 19.0   704 – Lincoln Laboratory ETS, New Mexico MPS 54228
2002 04 10.33606 13 12 15.55 -06 53 22.5 19.2   704 – Lincoln Laboratory ETS, New Mexico MPS 54228
2002 04 10.34745 13 12 14.86 -06 53 18.4 19.6   704 – Lincoln Laboratory ETS, New Mexico MPS 54228
2002 04 12.30525 13 10 20.36 -06 42 16.2 18.8   704 – Lincoln Laboratory ETS, New Mexico MPS 54228
2002 04 12.31983 13 10 19.45 -06 42 11.3 19.1   704 – Lincoln Laboratory ETS, New Mexico MPS 54228
2002 04 12.33567 13 10 18.50 -06 42 05.3 19.0   704 – Lincoln Laboratory ETS, New Mexico MPS 54228
2002 04 12.35027 13 10 17.60 -06 42 00.8 19.2   704 – Lincoln Laboratory ETS, New Mexico MPS 54228
2002 04 14.26907 13 08 25.75 -06 31 12.8 19.6   704 – Lincoln Laboratory ETS, New Mexico MPS 54228
2002 04 14.28313 13 08 24.93 -06 31 08.1 19.8   704 – Lincoln Laboratory ETS, New Mexico MPS 54228
2002 04 14.29719 13 08 24.03 -06 31 02.0 19.7   704 – Lincoln Laboratory ETS, New Mexico MPS 54228
2002 04 14.31126 13 08 23.24 -06 30 58.6 19.5   704 – Lincoln Laboratory ETS, New Mexico MPS 54228
2002 04 14.32537 13 08 22.34 -06 30 54.0 19.5   704 – Lincoln Laboratory ETS, New Mexico MPS 54228
2002 04 15.24481 13 07 29.05 -06 25 42.6 18.9   644 – Palomar Mountain/NEAT MPS 54228
2002 04 15.26746 13 07 27.72 -06 25 35.0 19.2   644 – Palomar Mountain/NEAT MPS 54228
2002 04 15.31289 13 07 25.01 -06 25 19.8 19.0   644 – Palomar Mountain/NEAT MPS 54228
2002 05 11.17884 12 46 31.91 -04 25 42.4 20.1   704 – Lincoln Laboratory ETS, New Mexico MPS 54206
2002 05 11.19356 12 46 31.41 -04 25 40.8 20.2   704 – Lincoln Laboratory ETS, New Mexico MPS 54206
2002 05 11.20836 12 46 30.89 -04 25 39.1 20.0   704 – Lincoln Laboratory ETS, New Mexico MPS 54206
2003 07 30.39277 01 28 00.58 +07 55 20.8 19.1   704 – Lincoln Laboratory ETS, New Mexico MPS 82576
